Location: Montreal
(45.5000°N, 73.5830°W)
Time: 01:46:10
(UTC-05:00)

OTV 5 (USA 277) - Visible Passes

Search period start: 18 February 2018 00:00
Search period end: 28 February 2018 00:00
Orbit: 404 x 417 km, 43.0° (Epoch: 07 September)

Date Brightness Start Highest point End Pass type
(mag) Time Alt. Az. Time Alt. Az. Time Alt. Az.
19 Feb ? 06:14:55 10° SSW 06:17:09 17° SSE 06:19:25 10° ESE visible
20 Feb ? 05:24:50 10° S 05:26:17 12° SSE 05:27:43 10° ESE visible
21 Feb ? 06:09:08 10° SW 06:12:03 30° SSE 06:14:59 10° E visible
22 Feb ? 05:19:05 14° SSW 05:21:07 23° SSE 05:23:48 10° ESE visible
23 Feb ? 04:30:34 17° SE 04:30:34 17° SE 04:32:27 10° ESE visible
23 Feb ? 06:03:54 10° WSW 06:07:03 45° S 06:10:14 10° E visible
24 Feb ? 05:14:44 25° SSW 05:16:04 37° SSE 05:19:09 10° E visible
25 Feb ? 04:26:04 25° SE 04:26:04 25° SE 04:28:02 10° E visible
25 Feb ? 05:58:54 10° WSW 06:02:07 55° S 06:05:22 10° E visible
26 Feb ? 05:10:07 35° SW 05:11:07 51° S 05:14:19 10° E visible
27 Feb ? 04:21:23 29° ESE 04:21:23 29° ESE 04:23:17 10° E visible
27 Feb ? 05:54:08 11° W 05:57:13 51° S 06:00:26 10° ESE visible
